Time,TemperatureF,DewpointF,PressureIn,WindDirection,WindDirectionDegrees,WindSpeedMPH,WindSpeedGustMPH,Humidity,HourlyPrecipIn,Conditions,Clouds,dailyrainin,SolarRadiationWatts/m^2,SoftwareType,DateUTC
2013-05-13 00:02:00,42.8,47.8,30.01,NE,37,1.0,2.0,40,0.00,,,0.00,0.0,meteohub,2013-05-13 04:02:00,
2013-05-13 00:07:00,43.3,47.8,30.01,NNE,13,3.0,3.0,40,0.00,,,0.00,0.0,meteohub,2013-05-13 04:07:00,
2013-05-13 00:12:00,43.3,47.8,30.01,NNW,346,0.0,4.0,40,0.00,,,0.00,0.0,meteohub,2013-05-13 04:12:00,
2013-05-13 00:17:00,43.0,47.8,30.02,NNW,346,0.0,4.0,40,0.00,,,0.00,0.0,meteohub,2013-05-13 04:17:00,
2013-05-13 00:22:00,42.4,47.8,30.02,North,349,0.0,4.0,40,0.00,,,0.00,0.0,meteohub,2013-05-13 04:22:00,
2013-05-13 00:27:00,42.3,47.8,30.02,NW,321,0.0,2.0,40,0.00,,,0.00,0.0,meteohub,2013-05-13 04:27:00,
2013-05-13 00:32:00,42.1,47.8,30.02,NNW,330,1.0,4.0,40,0.00,,,0.00,0.0,meteohub,2013-05-13 04:32:00,
2013-05-13 00:37:00,42.1,47.8,30.01,NW,306,1.0,4.0,40,0.00,,,0.00,0.0,meteohub,2013-05-13 04:37:00,
2013-05-13 00:42:00,41.5,47.8,30.01,NW,306,2.0,4.0,40,0.00,,,0.00,0.0,meteohub,2013-05-13 04:42:00,
2013-05-13 00:47:00,41.7,47.8,30.02,NW,304,1.0,3.0,40,0.00,,,0.00,0.0,meteohub,2013-05-13 04:47:00,
2013-05-13 00:52:00,41.4,47.8,30.02,NW,314,0.0,5.0,40,0.00,,,0.00,0.0,meteohub,2013-05-13 04:52:00,
2013-05-13 00:57:00,40.6,47.8,30.02,NW,310,0.0,5.0,40,0.00,,,0.00,0.0,meteohub,2013-05-13 04:57:00,
2013-05-13 01:02:00,40.5,47.8,30.02,NNW,346,0.0,5.0,40,0.00,,,0.00,0.0,meteohub,2013-05-13 05:02:00,
2013-05-13 01:07:00,39.7,47.8,30.01,NW,326,2.0,3.0,40,0.00,,,0.00,0.0,meteohub,2013-05-13 05:07:00,
2013-05-13 01:12:00,40.3,47.8,30.01,West,262,0.0,5.0,40,0.00,,,0.00,0.0,meteohub,2013-05-13 05:12:00,
2013-05-13 01:17:00,39.7,47.8,30.01,West,275,0.0,5.0,40,0.00,,,0.00,0.0,meteohub,2013-05-13 05:17:00,
2013-05-13 01:22:00,39.4,47.8,30.01,West,275,0.0,5.0,40,0.00,,,0.00,0.0,meteohub,2013-05-13 05:22:00,
2013-05-13 01:27:00,38.1,47.8,30.01,West,275,0.0,3.0,40,0.00,,,0.00,0.0,meteohub,2013-05-13 05:27:00,
2013-05-13 01:32:00,37.6,47.8,30.01,West,275,0.0,3.0,40,0.00,,,0.00,0.0,meteohub,2013-05-13 05:32:00,
2013-05-13 01:37:00,37.2,47.8,30.01,West,275,0.0,2.0,40,0.00,,,0.00,0.0,meteohub,2013-05-13 05:37:00,
2013-05-13 01:42:00,37.0,47.8,30.01,West,275,0.0,2.0,40,0.00,,,0.00,0.0,meteohub,2013-05-13 05:42:00,
2013-05-13 01:47:00,37.0,47.8,30.01,West,275,1.0,0.0,40,0.00,,,0.00,0.0,meteohub,2013-05-13 05:47:00,
2013-05-13 01:52:00,37.6,47.8,30.01,West,275,0.0,1.0,40,0.00,,,0.00,0.0,meteohub,2013-05-13 05:52:00,
2013-05-13 01:57:00,38.1,47.1,30.01,West,275,1.0,1.0,39,0.00,,,0.00,0.0,meteohub,2013-05-13 05:57:00,
2013-05-13 02:02:00,39.2,47.1,30.01,NNW,343,0.0,3.0,39,0.00,,,0.00,0.0,meteohub,2013-05-13 06:02:00,
2013-05-13 02:07:00,39.6,47.1,30.01,NW,321,1.0,3.0,39,0.00,,,0.00,0.0,meteohub,2013-05-13 06:07:00,
2013-05-13 02:12:00,39.7,47.1,30.01,WNW,286,2.0,4.0,39,0.00,,,0.00,0.0,meteohub,2013-05-13 06:12:00,
2013-05-13 02:17:00,40.1,47.1,30.01,NW,312,0.0,4.0,39,0.00,,,0.00,0.0,meteohub,2013-05-13 06:17:00,
2013-05-13 02:22:00,40.3,47.1,30.01,NNW,348,0.0,4.0,39,0.00,,,0.00,0.0,meteohub,2013-05-13 06:22:00,
2013-05-13 02:27:00,40.1,47.1,30.01,NW,318,0.0,4.0,39,0.00,,,0.00,0.0,meteohub,2013-05-13 06:27:00,
2013-05-13 02:32:00,39.9,47.1,30.01,North,351,1.0,4.0,39,0.00,,,0.00,0.0,meteohub,2013-05-13 06:32:00,
2013-05-13 02:37:00,39.7,47.1,30.01,NW,321,0.0,4.0,39,0.00,,,0.00,0.0,meteohub,2013-05-13 06:37:00,
2013-05-13 02:42:00,39.7,47.1,30.01,NNW,330,0.0,4.0,39,0.00,,,0.00,0.0,meteohub,2013-05-13 06:42:00,
2013-05-13 02:47:00,39.6,47.1,30.01,NNW,330,0.0,4.0,39,0.00,,,0.00,0.0,meteohub,2013-05-13 06:47:00,
2013-05-13 02:52:00,39.6,47.1,30.01,NNW,344,0.0,4.0,39,0.00,,,0.00,0.0,meteohub,2013-05-13 06:52:00,
2013-05-13 02:57:00,40.1,47.1,30.01,NNW,340,1.0,4.0,39,0.00,,,0.00,0.0,meteohub,2013-05-13 06:57:00,
2013-05-13 03:02:00,40.3,47.1,30.01,WNW,302,4.0,6.0,39,0.00,,,0.00,0.0,meteohub,2013-05-13 07:02:00,
2013-05-13 03:07:00,40.5,47.1,30.01,NNW,340,4.0,6.0,39,0.00,,,0.00,0.0,meteohub,2013-05-13 07:07:00,
2013-05-13 03:12:00,40.6,47.1,30.01,NNW,336,1.0,9.0,39,0.00,,,0.00,0.0,meteohub,2013-05-13 07:12:00,
2013-05-13 03:17:00,41.0,47.1,30.02,NNW,328,0.0,9.0,39,0.00,,,0.00,0.0,meteohub,2013-05-13 07:17:00,
2013-05-13 03:22:00,41.0,47.1,30.02,NW,304,4.0,9.0,39,0.00,,,0.00,0.0,meteohub,2013-05-13 07:22:00,
2013-05-13 03:27:00,41.4,47.1,30.02,NW,314,1.0,8.0,39,0.00,,,0.00,0.0,meteohub,2013-05-13 07:27:00,
2013-05-13 03:32:00,41.2,47.1,30.01,West,281,2.0,8.0,39,0.00,,,0.00,0.0,meteohub,2013-05-13 07:32:00,
2013-05-13 03:37:00,41.2,47.1,30.01,NNW,338,1.0,7.0,39,0.00,,,0.00,0.0,meteohub,2013-05-13 07:37:00,
2013-05-13 03:42:00,41.2,47.1,30.01,West,275,0.0,7.0,39,0.00,,,0.00,0.0,meteohub,2013-05-13 07:42:00,
2013-05-13 03:47:00,41.2,47.1,30.01,NNE,18,3.0,8.0,39,0.00,,,0.00,0.0,meteohub,2013-05-13 07:47:00,
2013-05-13 03:52:00,40.8,47.1,30.01,West,260,3.0,8.0,39,0.00,,,0.00,0.0,meteohub,2013-05-13 07:52:00,
2013-05-13 03:57:00,40.1,47.1,30.01,NNW,330,0.0,5.0,39,0.00,,,0.00,0.0,meteohub,2013-05-13 07:57:00,
2013-05-13 04:02:00,39.6,47.1,30.01,NW,315,0.0,3.0,39,0.00,,,0.00,0.0,meteohub,2013-05-13 08:02:00,
2013-05-13 04:07:00,39.4,47.1,30.02,NW,325,0.0,3.0,39,0.00,,,0.00,0.0,meteohub,2013-05-13 08:07:00,
2013-05-13 04:12:00,39.2,47.1,30.02,NW,325,0.0,3.0,39,0.00,,,0.00,0.0,meteohub,2013-05-13 08:12:00,
2013-05-13 04:17:00,38.8,47.1,30.02,NW,325,2.0,2.0,39,0.00,,,0.00,0.0,meteohub,2013-05-13 08:17:00,
2013-05-13 04:22:00,38.7,47.1,30.02,NW,325,0.0,2.0,39,0.00,,,0.00,0.0,meteohub,2013-05-13 08:22:00,
2013-05-13 04:27:00,38.8,47.1,30.02,NW,321,1.0,2.0,39,0.00,,,0.00,0.0,meteohub,2013-05-13 08:27:00,
2013-05-13 04:32:00,38.8,46.8,30.02,NW,309,0.0,3.0,39,0.00,,,0.00,0.0,meteohub,2013-05-13 08:32:00,
2013-05-13 04:37:00,38.7,46.8,30.03,WNW,296,0.0,3.0,39,0.00,,,0.00,0.0,meteohub,2013-05-13 08:37:00,
2013-05-13 04:42:00,38.7,46.8,30.03,West,267,5.0,5.0,39,0.00,,,0.00,0.0,meteohub,2013-05-13 08:42:00,
2013-05-13 04:47:00,38.7,46.8,30.03,West,274,0.0,6.0,39,0.00,,,0.00,0.0,meteohub,2013-05-13 08:47:00,
2013-05-13 04:52:00,38.1,46.8,30.03,West,274,0.0,6.0,39,0.00,,,0.00,0.0,meteohub,2013-05-13 08:52:00,
2013-05-13 04:57:00,37.8,46.8,30.03,West,274,0.0,6.0,39,0.00,,,0.00,0.0,meteohub,2013-05-13 08:57:00,
2013-05-13 05:02:00,37.6,46.8,30.03,West,274,0.0,1.0,39,0.00,,,0.00,0.0,meteohub,2013-05-13 09:02:00,
2013-05-13 05:07:00,37.4,46.8,30.03,West,274,0.0,1.0,39,0.00,,,0.00,0.0,meteohub,2013-05-13 09:07:00,
2013-05-13 05:12:00,37.4,46.8,30.03,West,274,0.0,0.0,39,0.00,,,0.00,0.0,meteohub,2013-05-13 09:12:00,
2013-05-13 05:17:00,37.6,46.8,30.03,West,274,0.0,1.0,39,0.00,,,0.00,0.0,meteohub,2013-05-13 09:17:00,
2013-05-13 05:22:00,37.6,46.8,30.04,West,274,0.0,1.0,39,0.00,,,0.00,0.0,meteohub,2013-05-13 09:22:00,
2013-05-13 05:27:00,37.8,46.8,30.04,WNW,286,0.0,2.0,39,0.00,,,0.00,0.0,meteohub,2013-05-13 09:27:00,
2013-05-13 05:32:00,38.1,46.8,30.03,WNW,286,0.0,2.0,39,0.00,,,0.00,0.0,meteohub,2013-05-13 09:32:00,
2013-05-13 05:37:00,38.3,46.8,30.04,WNW,286,0.0,2.0,39,0.00,,,0.00,0.0,meteohub,2013-05-13 09:37:00,
2013-05-13 05:42:00,38.5,46.8,30.03,WNW,287,0.0,2.0,39,0.00,,,0.00,0.0,meteohub,2013-05-13 09:42:00,
2013-05-13 05:52:00,38.5,46.0,30.04,WNW,287,0.0,1.0,38,0.00,,,0.00,0.0,meteohub,2013-05-13 09:52:00,
2013-05-13 05:57:00,38.5,46.0,30.04,WNW,287,0.0,1.0,38,0.00,,,0.00,0.0,meteohub,2013-05-13 09:57:00,
2013-05-13 06:02:00,38.3,46.4,30.04,WNW,287,0.0,1.0,38,0.00,,,0.00,0.0,meteohub,2013-05-13 10:02:00,
2013-05-13 06:07:00,38.5,46.4,30.04,WNW,287,0.0,1.0,38,0.00,,,0.00,0.0,meteohub,2013-05-13 10:07:00,
2013-05-13 06:12:00,38.7,48.4,30.04,WNW,287,0.0,1.0,41,0.00,,,0.00,0.0,meteohub,2013-05-13 10:12:00,
2013-05-13 06:17:00,38.7,47.1,30.04,WNW,287,0.0,1.0,39,0.00,,,0.00,0.0,meteohub,2013-05-13 10:17:00,
2013-05-13 06:22:00,38.7,47.8,30.05,WNW,287,0.0,1.0,40,0.00,,,0.00,0.0,meteohub,2013-05-13 10:22:00,
2013-05-13 06:27:00,38.7,47.8,30.05,WNW,287,0.0,1.0,40,0.00,,,0.00,0.0,meteohub,2013-05-13 10:27:00,
2013-05-13 06:32:00,38.5,47.8,30.06,WNW,287,0.0,1.0,40,0.00,,,0.00,5.0,meteohub,2013-05-13 10:32:00,
2013-05-13 06:37:00,38.5,48.0,30.06,WNW,287,0.0,1.0,40,0.00,,,0.00,7.0,meteohub,2013-05-13 10:37:00,
2013-05-13 06:42:00,38.3,48.6,30.06,WNW,287,0.0,1.0,41,0.00,,,0.00,11.0,meteohub,2013-05-13 10:42:00,
2013-05-13 06:47:00,37.9,49.3,30.06,NW,321,0.0,1.0,42,0.00,,,0.00,12.0,meteohub,2013-05-13 10:47:00,
2013-05-13 06:52:00,38.1,49.3,30.07,NW,321,0.0,1.0,42,0.00,,,0.00,16.0,meteohub,2013-05-13 10:52:00,
2013-05-13 06:57:00,37.9,49.3,30.07,NW,321,0.0,1.0,42,0.00,,,0.00,16.0,meteohub,2013-05-13 10:57:00,
2013-05-13 07:02:00,37.6,49.3,30.07,NW,321,0.0,1.0,42,0.00,,,0.00,18.0,meteohub,2013-05-13 11:02:00,
2013-05-13 07:07:00,37.2,49.1,30.07,NW,321,0.0,0.0,42,0.00,,,0.00,25.0,meteohub,2013-05-13 11:07:00,
2013-05-13 07:12:00,37.4,49.1,30.08,NW,321,0.0,0.0,42,0.00,,,0.00,47.0,meteohub,2013-05-13 11:12:00,
2013-05-13 07:17:00,37.6,48.4,30.08,NW,321,0.0,0.0,41,0.00,,,0.00,70.0,meteohub,2013-05-13 11:17:00,
2013-05-13 07:22:00,37.9,48.4,30.08,NW,321,0.0,1.0,41,0.00,,,0.00,86.0,meteohub,2013-05-13 11:22:00,
2013-05-13 07:27:00,38.7,48.4,30.08,NW,321,0.0,1.0,41,0.00,,,0.00,95.0,meteohub,2013-05-13 11:27:00,
2013-05-13 07:32:00,39.0,48.4,30.08,NW,321,0.0,1.0,41,0.00,,,0.00,97.0,meteohub,2013-05-13 11:32:00,
2013-05-13 07:37:00,39.4,47.1,30.08,NW,321,1.0,2.0,39,0.00,,,0.00,139.0,meteohub,2013-05-13 11:37:00,
2013-05-13 07:42:00,39.9,47.1,30.09,North,11,0.0,3.0,39,0.00,,,0.00,158.0,meteohub,2013-05-13 11:42:00,
2013-05-13 07:47:00,40.1,46.8,30.08,North,10,0.0,3.0,39,0.00,,,0.00,171.0,meteohub,2013-05-13 11:47:00,
2013-05-13 07:52:00,40.6,46.0,30.09,North,10,0.0,3.0,38,0.00,,,0.00,199.0,meteohub,2013-05-13 11:52:00,
2013-05-13 07:57:00,41.2,45.3,30.09,NNW,331,0.0,2.0,37,0.00,,,0.00,214.0,meteohub,2013-05-13 11:57:00,
2013-05-13 08:02:00,41.5,45.3,30.09,West,261,1.0,3.0,37,0.00,,,0.00,230.0,meteohub,2013-05-13 12:02:00,
2013-05-13 08:07:00,42.3,45.3,30.09,West,261,1.0,4.0,37,0.00,,,0.00,248.0,meteohub,2013-05-13 12:07:00,
2013-05-13 08:12:00,42.4,45.3,30.09,West,261,0.0,4.0,37,0.00,,,0.00,267.0,meteohub,2013-05-13 12:12:00,
2013-05-13 08:17:00,42.8,45.7,30.09,NNW,348,0.0,4.0,37,0.00,,,0.00,285.0,meteohub,2013-05-13 12:17:00,
2013-05-13 08:22:00,43.2,46.4,30.09,West,267,1.0,3.0,38,0.00,,,0.00,304.0,meteohub,2013-05-13 12:22:00,
2013-05-13 08:27:00,43.7,46.4,30.09,West,267,0.0,4.0,38,0.00,,,0.00,322.0,meteohub,2013-05-13 12:27:00,
2013-05-13 08:32:00,44.2,46.4,30.09,SW,224,0.0,4.0,38,0.00,,,0.00,336.0,meteohub,2013-05-13 12:32:00,
2013-05-13 08:37:00,44.6,46.4,30.09,SW,231,1.0,3.0,38,0.00,,,0.00,353.0,meteohub,2013-05-13 12:37:00,
2013-05-13 08:42:00,45.0,46.6,30.10,North,5,4.0,4.0,38,0.00,,,0.00,373.0,meteohub,2013-05-13 12:42:00,
2013-05-13 08:47:00,45.0,46.6,30.10,NNW,344,2.0,5.0,38,0.00,,,0.00,392.0,meteohub,2013-05-13 12:47:00,
2013-05-13 08:52:00,45.3,46.8,30.10,NNW,342,3.0,5.0,38,0.00,,,0.00,410.0,meteohub,2013-05-13 12:52:00,
2013-05-13 08:57:00,45.3,46.8,30.10,West,264,3.0,8.0,38,0.00,,,0.00,427.0,meteohub,2013-05-13 12:57:00,
2013-05-13 09:02:00,45.3,46.0,30.10,West,270,3.0,9.0,37,0.00,,,0.00,443.0,meteohub,2013-05-13 13:02:00,
2013-05-13 09:07:00,45.9,46.8,30.10,NW,306,4.0,9.0,38,0.00,,,0.00,462.0,meteohub,2013-05-13 13:07:00,
2013-05-13 09:12:00,45.9,46.6,30.10,SW,227,6.0,9.0,38,0.00,,,0.00,478.0,meteohub,2013-05-13 13:12:00,
2013-05-13 09:17:00,46.0,46.6,30.10,NW,306,3.0,8.0,38,0.00,,,0.00,494.0,meteohub,2013-05-13 13:17:00,
2013-05-13 09:22:00,46.2,46.8,30.11,NNW,339,6.0,11.0,38,0.00,,,0.00,513.0,meteohub,2013-05-13 13:22:00,
2013-05-13 09:27:00,46.2,46.8,30.11,WNW,297,1.0,11.0,38,0.00,,,0.00,533.0,meteohub,2013-05-13 13:27:00,
2013-05-13 09:32:00,46.6,46.2,30.11,North,355,4.0,9.0,37,0.00,,,0.00,547.0,meteohub,2013-05-13 13:32:00,
2013-05-13 09:37:00,46.8,46.0,30.11,NW,308,6.0,9.0,37,0.00,,,0.00,564.0,meteohub,2013-05-13 13:37:00,
2013-05-13 09:42:00,46.6,46.8,30.11,WNW,298,3.0,11.0,38,0.00,,,0.00,582.0,meteohub,2013-05-13 13:42:00,
2013-05-13 09:47:00,47.1,46.8,30.11,WNW,284,4.0,11.0,38,0.00,,,0.00,601.0,meteohub,2013-05-13 13:47:00,
2013-05-13 09:52:00,47.1,46.9,30.11,NW,317,5.0,13.0,38,0.00,,,0.00,615.0,meteohub,2013-05-13 13:52:00,
2013-05-13 09:57:00,47.5,46.9,30.11,NNW,336,4.0,13.0,38,0.00,,,0.00,633.0,meteohub,2013-05-13 13:57:00,
2013-05-13 10:02:00,48.0,46.4,30.11,WSW,248,7.0,11.0,37,0.00,,,0.00,649.0,meteohub,2013-05-13 14:02:00,
2013-05-13 10:07:00,48.4,46.4,30.11,East,80,2.0,9.0,37,0.00,,,0.00,668.0,meteohub,2013-05-13 14:07:00,
2013-05-13 10:12:00,48.6,46.9,30.12,NW,323,8.0,10.0,38,0.00,,,0.00,680.0,meteohub,2013-05-13 14:12:00,
2013-05-13 10:17:00,48.6,47.1,30.11,NNE,30,1.0,13.0,38,0.00,,,0.00,693.0,meteohub,2013-05-13 14:17:00,
2013-05-13 10:22:00,49.3,47.1,30.12,WSW,257,5.0,13.0,38,0.00,,,0.00,712.0,meteohub,2013-05-13 14:22:00,
2013-05-13 10:27:00,49.5,47.1,30.12,NNW,344,6.0,13.0,38,0.00,,,0.00,724.0,meteohub,2013-05-13 14:27:00,
2013-05-13 10:32:00,49.1,47.1,30.12,WSW,252,3.0,9.0,38,0.00,,,0.00,742.0,meteohub,2013-05-13 14:32:00,
2013-05-13 10:37:00,49.5,47.1,30.12,NW,319,4.0,14.0,38,0.00,,,0.00,754.0,meteohub,2013-05-13 14:37:00,
2013-05-13 10:42:00,49.6,46.6,30.12,NNW,335,4.0,14.0,37,0.00,,,0.00,766.0,meteohub,2013-05-13 14:42:00,
2013-05-13 10:47:00,49.8,46.6,30.12,WNW,294,7.0,14.0,37,0.00,,,0.00,779.0,meteohub,2013-05-13 14:47:00,
2013-05-13 10:52:00,50.5,46.6,30.12,WSW,246,3.0,10.0,37,0.00,,,0.00,791.0,meteohub,2013-05-13 14:52:00,
2013-05-13 10:57:00,51.4,46.6,30.12,WNW,295,3.0,14.0,37,0.00,,,0.00,805.0,meteohub,2013-05-13 14:57:00,
2013-05-13 11:02:00,51.1,46.6,30.12,WNW,288,6.0,14.0,37,0.00,,,0.00,821.0,meteohub,2013-05-13 15:02:00,
2013-05-13 11:07:00,51.6,46.6,30.12,WNW,300,11.0,14.0,37,0.00,,,0.00,831.0,meteohub,2013-05-13 15:07:00,
2013-05-13 11:12:00,50.7,46.6,30.12,North,349,6.0,13.0,37,0.00,,,0.00,849.0,meteohub,2013-05-13 15:12:00,
2013-05-13 11:17:00,51.6,46.6,30.12,NNW,336,6.0,13.0,37,0.00,,,0.00,858.0,meteohub,2013-05-13 15:17:00,
2013-05-13 11:27:00,52.5,46.0,30.12,WNW,282,5.0,14.0,36,0.00,,,0.00,882.0,meteohub,2013-05-13 15:27:00,
2013-05-13 11:32:00,52.3,46.6,30.12,SE,124,1.0,13.0,37,0.00,,,0.00,888.0,meteohub,2013-05-13 15:32:00,
2013-05-13 11:37:00,52.2,46.6,30.12,NNW,335,6.0,14.0,37,0.00,,,0.00,904.0,meteohub,2013-05-13 15:37:00,
2013-05-13 11:42:00,52.3,46.0,30.12,West,268,4.0,14.0,36,0.00,,,0.00,914.0,meteohub,2013-05-13 15:42:00,
2013-05-13 11:47:00,52.9,46.0,30.12,ENE,77,9.0,15.0,36,0.00,,,0.00,921.0,meteohub,2013-05-13 15:47:00,
2013-05-13 11:52:00,52.5,46.0,30.12,NNE,23,5.0,15.0,36,0.00,,,0.00,930.0,meteohub,2013-05-13 15:52:00,
2013-05-13 11:57:00,52.3,46.0,30.12,West,271,10.0,15.0,36,0.00,,,0.00,939.0,meteohub,2013-05-13 15:57:00,
2013-05-13 12:07:00,53.2,45.9,30.12,West,267,14.0,15.0,36,0.00,,,0.00,956.0,meteohub,2013-05-13 16:07:00,
2013-05-13 12:12:00,53.4,45.9,30.11,WNW,283,9.0,15.0,36,0.00,,,0.00,962.0,meteohub,2013-05-13 16:12:00,
2013-05-13 12:17:00,53.8,45.9,30.11,NNE,13,10.0,15.0,36,0.00,,,0.00,969.0,meteohub,2013-05-13 16:17:00,
2013-05-13 12:22:00,54.0,46.0,30.11,NNW,329,9.0,15.0,36,0.00,,,0.00,976.0,meteohub,2013-05-13 16:22:00,
2013-05-13 12:27:00,54.1,45.3,30.10,WSW,252,6.0,15.0,35,0.00,,,0.00,981.0,meteohub,2013-05-13 16:27:00,
2013-05-13 12:32:00,54.3,45.3,30.10,West,275,6.0,16.0,35,0.00,,,0.00,988.0,meteohub,2013-05-13 16:32:00,
2013-05-13 12:37:00,54.7,45.3,30.10,WSW,238,4.0,16.0,35,0.00,,,0.00,988.0,meteohub,2013-05-13 16:37:00,
2013-05-13 12:42:00,54.5,45.3,30.10,WNW,285,11.0,16.0,35,0.00,,,0.00,997.0,meteohub,2013-05-13 16:42:00,
2013-05-13 12:47:00,54.9,45.1,30.10,WNW,288,7.0,17.0,35,0.00,,,0.00,1000.0,meteohub,2013-05-13 16:47:00,
2013-05-13 12:52:00,54.9,45.9,30.11,NW,323,5.0,17.0,36,0.00,,,0.00,1005.0,meteohub,2013-05-13 16:52:00,
2013-05-13 12:57:00,54.9,45.9,30.10,NNW,340,4.0,17.0,36,0.00,,,0.00,1009.0,meteohub,2013-05-13 16:57:00,
2013-05-13 13:02:00,54.9,46.0,30.10,WNW,283,12.0,17.0,36,0.00,,,0.00,1013.0,meteohub,2013-05-13 17:02:00,
2013-05-13 13:07:00,55.0,46.0,30.10,WNW,291,4.0,17.0,36,0.00,,,0.00,1014.0,meteohub,2013-05-13 17:07:00,
2013-05-13 13:12:00,55.8,46.0,30.10,NW,314,7.0,17.0,36,0.00,,,0.00,1018.0,meteohub,2013-05-13 17:12:00,
2013-05-13 13:17:00,55.6,45.3,30.10,NNW,329,6.0,20.0,35,0.00,,,0.00,1018.0,meteohub,2013-05-13 17:17:00,
2013-05-13 13:22:00,55.9,46.0,30.09,WNW,282,6.0,20.0,36,0.00,,,0.00,1018.0,meteohub,2013-05-13 17:22:00,
2013-05-13 13:27:00,55.8,45.9,30.10,North,355,11.0,22.0,36,0.00,,,0.00,1021.0,meteohub,2013-05-13 17:27:00,
2013-05-13 13:32:00,55.8,45.9,30.10,WNW,302,7.0,22.0,36,0.00,,,0.00,1023.0,meteohub,2013-05-13 17:32:00,
2013-05-13 13:37:00,55.8,46.0,30.09,WNW,300,11.0,22.0,36,0.00,,,0.00,1021.0,meteohub,2013-05-13 17:37:00,
2013-05-13 13:47:00,55.8,46.0,30.09,NNW,348,15.0,21.0,36,0.00,,,0.00,1018.0,meteohub,2013-05-13 17:47:00,
2013-05-13 13:52:00,55.6,45.3,30.09,North,0,8.0,20.0,35,0.00,,,0.00,1021.0,meteohub,2013-05-13 17:52:00,
2013-05-13 13:57:00,55.9,45.1,30.08,NW,322,1.0,19.0,35,0.00,,,0.00,1018.0,meteohub,2013-05-13 17:57:00,
2013-05-13 14:02:00,56.7,45.1,30.09,WNW,296,12.0,19.0,35,0.00,,,0.00,1018.0,meteohub,2013-05-13 18:02:00,
2013-05-13 14:07:00,56.8,45.1,30.08,WNW,286,8.0,21.0,35,0.00,,,0.00,1014.0,meteohub,2013-05-13 18:07:00,
2013-05-13 14:12:00,57.2,45.1,30.08,West,268,9.0,21.0,35,0.00,,,0.00,1013.0,meteohub,2013-05-13 18:12:00,
2013-05-13 14:17:00,57.2,45.3,30.08,NW,310,6.0,22.0,35,0.00,,,0.00,1009.0,meteohub,2013-05-13 18:17:00,
2013-05-13 14:22:00,57.6,45.3,30.08,WNW,294,10.0,22.0,35,0.00,,,0.00,1005.0,meteohub,2013-05-13 18:22:00,
2013-05-13 14:27:00,57.0,45.3,30.08,WSW,250,7.0,24.0,35,0.00,,,0.00,1002.0,meteohub,2013-05-13 18:27:00,
2013-05-13 14:32:00,57.4,45.5,30.08,North,355,10.0,24.0,35,0.00,,,0.00,993.0,meteohub,2013-05-13 18:32:00,
2013-05-13 14:37:00,57.7,44.8,30.08,West,271,9.0,24.0,34,0.00,,,0.00,990.0,meteohub,2013-05-13 18:37:00,
2013-05-13 14:42:00,57.7,45.5,30.07,WNW,302,1.0,17.0,35,0.00,,,0.00,984.0,meteohub,2013-05-13 18:42:00,
2013-05-13 14:47:00,58.1,43.9,30.07,WNW,284,4.0,17.0,33,0.00,,,0.00,976.0,meteohub,2013-05-13 18:47:00,
2013-05-13 14:52:00,57.9,44.8,30.07,West,267,12.0,17.0,34,0.00,,,0.00,970.0,meteohub,2013-05-13 18:52:00,
2013-05-13 14:57:00,58.1,43.9,30.08,NE,49,6.0,20.0,33,0.00,,,0.00,963.0,meteohub,2013-05-13 18:57:00,
2013-05-13 15:02:00,57.7,43.0,30.07,NNE,17,5.0,20.0,32,0.00,,,0.00,954.0,meteohub,2013-05-13 19:02:00,
2013-05-13 15:07:00,57.7,43.0,30.07,SW,227,9.0,21.0,32,0.00,,,0.00,942.0,meteohub,2013-05-13 19:07:00,
2013-05-13 15:12:00,57.7,42.3,30.06,South,186,4.0,21.0,31,0.00,,,0.00,937.0,meteohub,2013-05-13 19:12:00,
2013-05-13 15:17:00,57.9,42.3,30.06,West,265,7.0,20.0,31,0.00,,,0.00,928.0,meteohub,2013-05-13 19:17:00,
2013-05-13 15:22:00,57.7,43.0,30.06,NE,34,1.0,19.0,32,0.00,,,0.00,921.0,meteohub,2013-05-13 19:22:00,
2013-05-13 15:27:00,57.4,43.0,30.06,WSW,241,13.0,16.0,32,0.00,,,0.00,912.0,meteohub,2013-05-13 19:27:00,
2013-05-13 15:32:00,57.4,43.0,30.06,NW,323,13.0,20.0,32,0.00,,,0.00,902.0,meteohub,2013-05-13 19:32:00,
2013-05-13 15:37:00,57.7,43.0,30.06,NW,314,11.0,20.0,32,0.00,,,0.00,889.0,meteohub,2013-05-13 19:37:00,
2013-05-13 15:42:00,57.6,43.2,30.06,NE,41,4.0,22.0,32,0.00,,,0.00,879.0,meteohub,2013-05-13 19:42:00,
2013-05-13 15:47:00,57.9,43.2,30.06,West,267,2.0,22.0,32,0.00,,,0.00,867.0,meteohub,2013-05-13 19:47:00,
2013-05-13 15:52:00,58.5,43.0,30.05,SW,230,6.0,15.0,32,0.00,,,0.00,854.0,meteohub,2013-05-13 19:52:00,
2013-05-13 15:57:00,58.6,43.7,30.05,WNW,286,5.0,15.0,33,0.00,,,0.00,846.0,meteohub,2013-05-13 19:57:00,
2013-05-13 16:02:00,58.1,43.7,30.05,West,262,4.0,17.0,33,0.00,,,0.00,833.0,meteohub,2013-05-13 20:02:00,
2013-05-13 16:07:00,57.7,43.7,30.05,West,259,1.0,20.0,33,0.00,,,0.00,823.0,meteohub,2013-05-13 20:07:00,
2013-05-13 16:12:00,58.5,43.5,30.05,NNE,26,11.0,20.0,33,0.00,,,0.00,812.0,meteohub,2013-05-13 20:12:00,
2013-05-13 16:17:00,58.3,43.5,30.05,SSW,205,4.0,20.0,33,0.00,,,0.00,796.0,meteohub,2013-05-13 20:17:00,
2013-05-13 16:22:00,57.7,43.5,30.05,WSW,239,4.0,17.0,33,0.00,,,0.00,782.0,meteohub,2013-05-13 20:22:00,
2013-05-13 16:27:00,57.9,43.5,30.05,WNW,295,9.0,20.0,33,0.00,,,0.00,772.0,meteohub,2013-05-13 20:27:00,
2013-05-13 16:32:00,57.4,42.6,30.04,NW,323,7.0,20.0,32,0.00,,,0.00,758.0,meteohub,2013-05-13 20:32:00,
2013-05-13 16:37:00,57.0,43.3,30.05,WSW,241,8.0,20.0,33,0.00,,,0.00,745.0,meteohub,2013-05-13 20:37:00,
2013-05-13 16:42:00,57.4,43.3,30.05,ENE,65,7.0,18.0,33,0.00,,,0.00,729.0,meteohub,2013-05-13 20:42:00,
2013-05-13 16:47:00,57.6,43.3,30.05,WNW,301,15.0,18.0,33,0.00,,,0.00,714.0,meteohub,2013-05-13 20:47:00,
2013-05-13 16:52:00,57.6,43.3,30.05,WNW,302,6.0,17.0,33,0.00,,,0.00,698.0,meteohub,2013-05-13 20:52:00,
2013-05-13 16:57:00,57.9,44.1,30.05,NW,319,10.0,15.0,34,0.00,,,0.00,684.0,meteohub,2013-05-13 20:57:00,
2013-05-13 17:02:00,57.6,44.1,30.05,North,0,6.0,17.0,34,0.00,,,0.00,673.0,meteohub,2013-05-13 21:02:00,
2013-05-13 17:07:00,57.0,44.1,30.05,NW,306,9.0,17.0,34,0.00,,,0.00,657.0,meteohub,2013-05-13 21:07:00,
2013-05-13 17:12:00,57.0,44.1,30.05,West,281,9.0,17.0,34,0.00,,,0.00,636.0,meteohub,2013-05-13 21:12:00,
2013-05-13 17:17:00,57.2,43.9,30.05,WNW,283,6.0,16.0,34,0.00,,,0.00,617.0,meteohub,2013-05-13 21:17:00,
2013-05-13 17:22:00,56.8,43.9,30.05,NNW,329,8.0,18.0,34,0.00,,,0.00,599.0,meteohub,2013-05-13 21:22:00,
2013-05-13 17:27:00,56.7,43.9,30.05,NNW,336,6.0,18.0,34,0.00,,,0.00,582.0,meteohub,2013-05-13 21:27:00,
2013-05-13 17:32:00,56.8,43.9,30.05,West,280,6.0,18.0,34,0.00,,,0.00,566.0,meteohub,2013-05-13 21:32:00,
2013-05-13 17:37:00,56.8,43.9,30.05,WSW,257,9.0,12.0,34,0.00,,,0.00,548.0,meteohub,2013-05-13 21:37:00,
2013-05-13 17:42:00,56.7,43.9,30.05,West,264,3.0,14.0,34,0.00,,,0.00,529.0,meteohub,2013-05-13 21:42:00,
2013-05-13 17:47:00,56.7,43.9,30.05,WNW,284,4.0,15.0,34,0.00,,,0.00,513.0,meteohub,2013-05-13 21:47:00,
2013-05-13 17:52:00,56.8,43.9,30.05,WSW,240,2.0,15.0,34,0.00,,,0.00,496.0,meteohub,2013-05-13 21:52:00,
2013-05-13 17:57:00,57.2,43.9,30.05,NW,308,13.0,13.0,34,0.00,,,0.00,478.0,meteohub,2013-05-13 21:57:00,
2013-05-13 18:02:00,56.7,44.6,30.05,West,278,9.0,19.0,35,0.00,,,0.00,461.0,meteohub,2013-05-13 22:02:00,
2013-05-13 18:07:00,56.7,44.6,30.05,West,264,8.0,19.0,35,0.00,,,0.00,441.0,meteohub,2013-05-13 22:07:00,
2013-05-13 18:12:00,56.7,44.6,30.05,NNW,327,3.0,19.0,35,0.00,,,0.00,422.0,meteohub,2013-05-13 22:12:00,
2013-05-13 18:17:00,56.5,44.6,30.05,NNW,327,2.0,16.0,35,0.00,,,0.00,403.0,meteohub,2013-05-13 22:17:00,
2013-05-13 18:22:00,55.9,44.8,30.05,WSW,244,8.0,14.0,35,0.00,,,0.00,385.0,meteohub,2013-05-13 22:22:00,
2013-05-13 18:27:00,55.8,44.8,30.05,West,281,7.0,14.0,35,0.00,,,0.00,364.0,meteohub,2013-05-13 22:27:00,
2013-05-13 18:32:00,55.8,44.8,30.05,NW,304,2.0,14.0,35,0.00,,,0.00,346.0,meteohub,2013-05-13 22:32:00,
2013-05-13 18:37:00,55.6,44.8,30.04,WSW,240,3.0,14.0,35,0.00,,,0.00,329.0,meteohub,2013-05-13 22:37:00,
2013-05-13 18:42:00,55.6,44.8,30.05,WNW,290,12.0,16.0,35,0.00,,,0.00,309.0,meteohub,2013-05-13 22:42:00,
2013-05-13 18:47:00,55.4,44.8,30.05,WNW,302,12.0,16.0,35,0.00,,,0.00,295.0,meteohub,2013-05-13 22:47:00,
2013-05-13 18:52:00,55.6,44.6,30.05,NW,315,11.0,15.0,35,0.00,,,0.00,274.0,meteohub,2013-05-13 22:52:00,
2013-05-13 18:57:00,55.6,44.6,30.05,North,355,6.0,15.0,35,0.00,,,0.00,257.0,meteohub,2013-05-13 22:57:00,
2013-05-13 19:02:00,55.4,44.6,30.05,NW,313,8.0,14.0,35,0.00,,,0.00,237.0,meteohub,2013-05-13 23:02:00,
2013-05-13 19:07:00,55.0,44.6,30.05,WNW,292,3.0,12.0,35,0.00,,,0.00,216.0,meteohub,2013-05-13 23:07:00,
2013-05-13 19:12:00,55.0,44.6,30.05,WNW,302,3.0,12.0,35,0.00,,,0.00,195.0,meteohub,2013-05-13 23:12:00,
2013-05-13 19:17:00,54.9,44.6,30.05,WNW,284,2.0,14.0,35,0.00,,,0.00,179.0,meteohub,2013-05-13 23:17:00,
2013-05-13 19:22:00,54.7,44.6,30.05,WNW,292,4.0,15.0,35,0.00,,,0.00,156.0,meteohub,2013-05-13 23:22:00,
2013-05-13 19:27:00,54.5,44.6,30.05,NW,324,7.0,15.0,35,0.00,,,0.00,137.0,meteohub,2013-05-13 23:27:00,
2013-05-13 19:32:00,54.3,44.6,30.05,WNW,286,3.0,11.0,35,0.00,,,0.00,118.0,meteohub,2013-05-13 23:32:00,
2013-05-13 19:37:00,54.1,44.8,30.05,NW,323,5.0,11.0,35,0.00,,,0.00,98.0,meteohub,2013-05-13 23:37:00,
2013-05-13 19:42:00,54.0,44.8,30.06,NW,311,5.0,10.0,35,0.00,,,0.00,81.0,meteohub,2013-05-13 23:42:00,
2013-05-13 19:47:00,53.8,44.8,30.05,NW,326,5.0,14.0,35,0.00,,,0.00,65.0,meteohub,2013-05-13 23:47:00,
2013-05-13 19:52:00,53.4,44.8,30.06,WNW,302,6.0,14.0,35,0.00,,,0.00,53.0,meteohub,2013-05-13 23:52:00,
2013-05-13 19:57:00,53.2,44.8,30.06,NW,309,4.0,14.0,35,0.00,,,0.00,23.0,meteohub,2013-05-13 23:57:00,
2013-05-13 20:02:00,52.9,44.8,30.06,NW,324,5.0,10.0,35,0.00,,,0.00,19.0,meteohub,2013-05-14 00:02:00,
2013-05-13 20:07:00,52.7,44.8,30.06,NNW,328,7.0,11.0,35,0.00,,,0.00,16.0,meteohub,2013-05-14 00:07:00,
2013-05-13 20:12:00,52.5,44.8,30.06,NNW,327,4.0,12.0,35,0.00,,,0.00,14.0,meteohub,2013-05-14 00:12:00,
2013-05-13 20:17:00,52.3,44.8,30.06,WNW,301,4.0,12.0,35,0.00,,,0.00,11.0,meteohub,2013-05-14 00:17:00,
2013-05-13 20:22:00,52.2,44.8,30.06,NNW,335,4.0,12.0,35,0.00,,,0.00,7.0,meteohub,2013-05-14 00:22:00,
2013-05-13 20:27:00,52.0,44.8,30.06,NNW,338,1.0,8.0,35,0.00,,,0.00,5.0,meteohub,2013-05-14 00:27:00,
2013-05-13 20:32:00,51.6,44.8,30.06,North,5,9.0,9.0,35,0.00,,,0.00,0.0,meteohub,2013-05-14 00:32:00,
2013-05-13 20:37:00,51.6,44.8,30.07,NW,315,1.0,11.0,35,0.00,,,0.00,0.0,meteohub,2013-05-14 00:37:00,
2013-05-13 20:47:00,51.1,44.6,30.07,NNW,327,4.0,11.0,35,0.00,,,0.00,0.0,meteohub,2013-05-14 00:47:00,
2013-05-13 20:57:00,51.1,44.6,30.08,North,0,3.0,14.0,35,0.00,,,0.00,0.0,meteohub,2013-05-14 00:57:00,
2013-05-13 21:02:00,51.1,44.6,30.08,NNW,345,1.0,14.0,35,0.00,,,0.00,0.0,meteohub,2013-05-14 01:02:00,
2013-05-13 21:07:00,50.7,44.6,30.09,North,5,4.0,9.0,35,0.00,,,0.00,0.0,meteohub,2013-05-14 01:07:00,
2013-05-13 21:12:00,50.7,45.3,30.09,NW,319,1.0,9.0,36,0.00,,,0.00,0.0,meteohub,2013-05-14 01:12:00,
2013-05-13 21:17:00,50.4,45.3,30.09,NNW,341,3.0,6.0,36,0.00,,,0.00,0.0,meteohub,2013-05-14 01:17:00,
2013-05-13 21:22:00,50.4,45.3,30.09,NNE,22,3.0,7.0,36,0.00,,,0.00,0.0,meteohub,2013-05-14 01:22:00,
2013-05-13 21:27:00,50.4,45.3,30.09,North,350,4.0,7.0,36,0.00,,,0.00,0.0,meteohub,2013-05-14 01:27:00,
2013-05-13 21:32:00,50.2,45.3,30.09,NNW,337,2.0,7.0,36,0.00,,,0.00,0.0,meteohub,2013-05-14 01:32:00,
2013-05-13 21:37:00,50.0,45.3,30.09,West,277,3.0,6.0,36,0.00,,,0.00,0.0,meteohub,2013-05-14 01:37:00,
2013-05-13 21:42:00,49.8,45.3,30.10,NNE,24,1.0,6.0,36,0.00,,,0.00,0.0,meteohub,2013-05-14 01:42:00,
2013-05-13 21:47:00,49.6,45.3,30.10,NW,324,0.0,6.0,36,0.00,,,0.00,0.0,meteohub,2013-05-14 01:47:00,
2013-05-13 21:52:00,49.5,45.3,30.10,NNW,333,2.0,6.0,36,0.00,,,0.00,0.0,meteohub,2013-05-14 01:52:00,
2013-05-13 21:57:00,49.5,45.3,30.10,WNW,300,0.0,6.0,36,0.00,,,0.00,0.0,meteohub,2013-05-14 01:57:00,
2013-05-13 22:02:00,48.7,45.3,30.10,WNW,300,1.0,6.0,36,0.00,,,0.00,0.0,meteohub,2013-05-14 02:02:00,
2013-05-13 22:12:00,47.8,45.3,30.11,NNE,28,1.0,6.0,36,0.00,,,0.00,0.0,meteohub,2013-05-14 02:12:00,
2013-05-13 22:17:00,47.7,45.1,30.11,NW,316,0.0,6.0,36,0.00,,,0.00,0.0,meteohub,2013-05-14 02:17:00,
2013-05-13 22:22:00,47.5,45.1,30.11,NNW,338,1.0,6.0,36,0.00,,,0.00,0.0,meteohub,2013-05-14 02:22:00,
2013-05-13 22:27:00,47.8,45.0,30.11,NE,43,1.0,5.0,36,0.00,,,0.00,0.0,meteohub,2013-05-14 02:27:00,
2013-05-13 22:32:00,47.8,45.0,30.11,NW,323,3.0,5.0,36,0.00,,,0.00,0.0,meteohub,2013-05-14 02:32:00,
2013-05-13 22:37:00,47.8,45.0,30.12,NNW,331,0.0,5.0,36,0.00,,,0.00,0.0,meteohub,2013-05-14 02:37:00,
2013-05-13 22:42:00,47.3,45.0,30.12,NNW,342,0.0,5.0,36,0.00,,,0.00,0.0,meteohub,2013-05-14 02:42:00,
2013-05-13 22:47:00,46.8,45.1,30.12,North,355,0.0,5.0,36,0.00,,,0.00,0.0,meteohub,2013-05-14 02:47:00,
2013-05-13 22:52:00,45.5,45.1,30.12,ENE,61,0.0,4.0,36,0.00,,,0.00,0.0,meteohub,2013-05-14 02:52:00,
2013-05-13 22:57:00,44.8,45.1,30.12,ENE,78,1.0,4.0,36,0.00,,,0.00,0.0,meteohub,2013-05-14 02:57:00,
2013-05-13 23:02:00,44.1,45.1,30.13,ENE,78,0.0,2.0,36,0.00,,,0.00,0.0,meteohub,2013-05-14 03:02:00,
2013-05-13 23:07:00,43.5,45.1,30.13,ENE,78,0.0,1.0,36,0.00,,,0.00,0.0,meteohub,2013-05-14 03:07:00,
2013-05-13 23:12:00,43.3,45.1,30.13,ENE,78,0.0,1.0,36,0.00,,,0.00,0.0,meteohub,2013-05-14 03:12:00,
2013-05-13 23:17:00,43.2,45.1,30.13,ENE,78,0.0,1.0,36,0.00,,,0.00,0.0,meteohub,2013-05-14 03:17:00,
2013-05-13 23:22:00,43.2,45.1,30.13,ENE,78,0.0,0.0,36,0.00,,,0.00,0.0,meteohub,2013-05-14 03:22:00,
2013-05-13 23:27:00,43.3,45.1,30.13,ENE,78,0.0,1.0,36,0.00,,,0.00,0.0,meteohub,2013-05-14 03:27:00,
2013-05-13 23:32:00,43.3,45.1,30.13,ENE,78,0.0,1.0,36,0.00,,,0.00,0.0,meteohub,2013-05-14 03:32:00,
2013-05-13 23:37:00,43.3,45.1,30.13,ENE,78,0.0,1.0,36,0.00,,,0.00,0.0,meteohub,2013-05-14 03:37:00,
2013-05-13 23:42:00,43.2,45.1,30.14,ENE,78,0.0,0.0,36,0.00,,,0.00,0.0,meteohub,2013-05-14 03:42:00,
2013-05-13 23:47:00,42.6,45.1,30.14,ENE,78,0.0,0.0,36,0.00,,,0.00,0.0,meteohub,2013-05-14 03:47:00,
2013-05-13 23:52:00,42.4,45.1,30.14,ENE,78,0.0,0.0,36,0.00,,,0.00,0.0,meteohub,2013-05-14 03:52:00,
2013-05-13 23:57:00,42.3,45.1,30.14,ENE,78,0.0,0.0,36,0.00,,,0.00,0.0,meteohub,2013-05-14 03:57:00,